Weerstation Grootegast  Weerstation Grootegast


15 daagse weersverwachting Bilbao (ES)

  • Overzicht
  • Per uur
  • 15 dagen
  • Extra
  • Vergelijk
  • Kaarten
  • Dagkaart
  • Meer »
  • Info
  • Statistieken
  • Directe link
    Temp 6h Neerslag Wind  
 08:29     17:36    Daglengte: 9:07 Vandaag
19:00
5.9 mm
4
 08:30     17:36    Daglengte: 9:06 Morgen
01:00
 
4
07:00
 
3
13:00
23.7 mm
5
19:00
34.9 mm
6
 08:31     17:36    Daglengte: 9:05 Zondag 06 Dec
01:00
25.1 mm
6
07:00
83.7 mm
7
13:00
84.5 mm
7
19:00
76.5 mm
5
 08:32     17:36    Daglengte: 9:04 Maandag 07 Dec
01:00
79.3 mm
3
07:00
102.8 mm
3
13:00
181.7 mm
5
Locatie info
Region: País Vasco
Latitude: 43.2687°N
Longitude: -2.9461°E
20 masl
Postcode: 48014
Temp/Neerslag /Baro Onweer/Dauwpunt
    Temp Baro 1h Neerslag Dauwpunt Wind UV Bewolking  
 08:29     17:36    Daglengte: 9:07 Vandaag
16:00
Voelt als: 4.6°
992.6 hPa
14%
2.6°
5
Windvlaag: -1 m/s
87%
17:00
Voelt als: 4.2°
993.0 hPa
30%
2.6°
5
Windvlaag: 0.8 m/s
89%
18:00
Voelt als: 3.6°
993.4 hPa 5.9 mm
27%
3.1°
5
Windvlaag: 1.3 m/s
87%
19:00
Voelt als: 3.6°
993.7 hPa
26%
3.5°
4
Windvlaag: 1.9 m/s
88%
20:00
Voelt als: 3.5°
994.1 hPa
27%
3.3°
4
Windvlaag: 2.2 m/s
81%
21:00
Voelt als: 3.3°
994.4 hPa
24%
3.6°
4
Windvlaag: 1.2 m/s
82%
22:00
Voelt als: 3.3°
994.7 hPa
25%
3.5°
3
Windvlaag: 1.7 m/s
82%
23:00
Voelt als: 3.2°
995.1 hPa
28%
3.4°
3
Windvlaag: 1.7 m/s
82%
 08:30     17:36    Daglengte: 9:06 Morgen
00:00
Voelt als: 3.2°
995.3 hPa
28%
2.9°
3
Windvlaag: 2.1 m/s
87%
01:00
Voelt als: 3.2°
995.7 hPa
27%
2.8°
4
Windvlaag: 2.4 m/s
81%
02:00
Voelt als: 2.9°
996.0 hPa
24%
3.4°
4
Windvlaag: 3.1 m/s
66%
03:00
Voelt als: 3.0°
996.2 hPa
23%
3.1°
3
Windvlaag: 2.6 m/s
73%
04:00
Voelt als: 2.9°
996.3 hPa
23%
2.9°
3
Windvlaag: 2 m/s
87%
05:00
Voelt als: 3.0°
996.3 hPa
24%
1.7°
3
Windvlaag: 1.3 m/s
89%
06:00
Voelt als: 3.1°
996.6 hPa
69%
1.0°
3
Windvlaag: 3.1 m/s
84%
07:00
Voelt als: 3.1°
996.9 hPa
71%
0.6°
3
Windvlaag: 3.9 m/s
67%
08:00
Voelt als: 2.5°
997.3 hPa
28%
0.1°
4
Windvlaag: 4.1 m/s
74%
09:00
Voelt als: 2.1°
997.5 hPa
24%
-0.2°
4
Windvlaag: 4.4 m/s
90%
10:00
Voelt als: 2.8°
997.6 hPa
81%
0.9°
4
Windvlaag: 4.7 m/s
89%
11:00
Voelt als: 3.6°
997.7 hPa 9.4 mm
79%
2.2°
5
Windvlaag: 5.1 m/s
89%
12:00
Voelt als: 5.0°
998.1 hPa 6.8 mm
79%
3.4°
5
Windvlaag: 5.3 m/s
91%
13:00
Voelt als: 4.1°
998.2 hPa 7.5 mm
82%
5.3°
5
Windvlaag: 5.1 m/s
91%
14:00
Voelt als: 4.4°
998.1 hPa 7.3 mm
82%
5.2°
5
Windvlaag: 5.4 m/s
89%
15:00
Voelt als: 4.9°
998.3 hPa 7.3 mm
82%
6.1°
6
Windvlaag: 5.2 m/s
89%
16:00
Voelt als: 5.1°
999.0 hPa 10.2 mm
82%
6.2°
6
Windvlaag: 3.4 m/s
90%
17:00
Voelt als: 5.0°
999.6 hPa 10.1 mm
76%
6.0°
6
Windvlaag: 2.4 m/s
84%
18:00
Voelt als: 4.8°
1000.2 hPa
79%
5.9°
6
Windvlaag: 1.6 m/s
89%
19:00
Voelt als: 4.9°
1000.8 hPa
79%
5.8°
6
Windvlaag: 2 m/s
84%
20:00
Voelt als: 4.8°
1001.2 hPa
74%
5.5°
6
Windvlaag: 2 m/s
79%
21:00
Voelt als: 4.7°
1001.6 hPa
71%
5.2°
6
Windvlaag: 2.5 m/s
90%
22:00
Voelt als: 4.8°
1001.8 hPa 11.4 mm
34%
5.3°
6
Windvlaag: 2 m/s
88%
23:00
Voelt als: 5.0°
1001.8 hPa
31%
4.8°
6
Windvlaag: 2.4 m/s
87%
 08:31     17:36    Daglengte: 9:05 Zondag 06 Dec
00:00
Voelt als: 5.2°
1001.9 hPa
32%
5.1°
6
Windvlaag: 2.7 m/s
87%
01:00
Voelt als: 5.0°
1001.9 hPa 13.7 mm
69%
5.4°
6
Windvlaag: 3.4 m/s
69%
02:00
Voelt als: 4.9°
1002.1 hPa 14.1 mm
68%
5.3°
6
Windvlaag: 0.7 m/s
82%
03:00
Voelt als: 5.0°
1002.3 hPa 14.7 mm
37%
5.6°
5
Windvlaag: 0.7 m/s
81%
04:00
Voelt als: 5.1°
1002.3 hPa 14.4 mm
76%
5.9°
6
Windvlaag: 1.2 m/s
74%
05:00
Voelt als: 5.0°
1002.3 hPa 14.6 mm
77%
6.1°
7
Windvlaag: 0.1 m/s
77%
06:00
Voelt als: 5.0°
1002.6 hPa 15.2 mm
80%
6.1°
6
Windvlaag: 0.1 m/s
79%
07:00
Voelt als: 4.8°
1003.1 hPa 10.7 mm
82%
6.2°
7
Windvlaag: -1.2 m/s
69%
08:00
Voelt als: 4.4°
1003.8 hPa 11.0 mm
82%
6.0°
7
Windvlaag: -1.1 m/s
72%
09:00
Voelt als: 4.5°
1004.6 hPa 15.7 mm
82%
6.0°
6
Windvlaag: -0.2 m/s
67%
10:00
Voelt als: 4.7°
1005.5 hPa 15.6 mm
100%
5.6°
6
Windvlaag: -1.6 m/s
78%
11:00
Voelt als: 5.1°
1006.0 hPa 15.7 mm
100%
6.1°
7
Windvlaag: -0.8 m/s
72%
12:00
Voelt als: 5.2°
1006.4 hPa 15.4 mm
100%
5.9°
7
Windvlaag: -1.2 m/s
79%
13:00
Voelt als: 5.4°
1006.3 hPa 11.1 mm
100%
6.3°
7
Windvlaag: -2 m/s
77%
14:00
Voelt als: 5.5°
1006.5 hPa 11.2 mm
100%
6.2°
7
Windvlaag: -1.9 m/s
66%
15:00
Voelt als: 5.5°
1006.6 hPa 15.6 mm
100%
5.6°
6
Windvlaag: -1.1 m/s
70%
16:00
Voelt als: 5.1°
1006.7 hPa 15.7 mm
100%
6.0°
6
Windvlaag: 0.1 m/s
74%
17:00
Voelt als: 4.9°
1007.1 hPa 11.2 mm
100%
5.9°
6
Windvlaag: 0.6 m/s
77%
18:00
Voelt als: 4.8°
1007.4 hPa 11.4 mm
100%
5.8°
5
Windvlaag: 0 m/s
79%
19:00
Voelt als: 4.8°
1007.9 hPa 11.4 mm
100%
5.6°
5
Windvlaag: 1.7 m/s
52%
20:00
Voelt als: 4.8°
1008.2 hPa 11.6 mm
100%
5.3°
4
Windvlaag: 1.7 m/s
72%
21:00
Voelt als: 4.7°
1008.5 hPa 11.6 mm
100%
5.5°
3
Windvlaag: 1 m/s
62%
22:00
Voelt als: 4.7°
1008.6 hPa 11.6 mm
100%
5.4°
3
Windvlaag: 1 m/s
71%
23:00
Voelt als: 4.6°
1008.7 hPa 11.7 mm
100%
5.5°
3
Windvlaag: 1.2 m/s
68%
 08:32     17:36    Daglengte: 9:04 Maandag 07 Dec
00:00
Voelt als: 4.5°
1008.6 hPa 16.3 mm
100%
5.2°
3
Windvlaag: 1 m/s
83%
01:00
Voelt als: 4.3°
1008.4 hPa 16.6 mm
100%
5.1°
3
Windvlaag: 1.5 m/s
95%
02:00
Voelt als: 4.4°
1007.8 hPa 16.7 mm
100%
4.7°
3
Windvlaag: 2 m/s
93%
03:00
Voelt als: 4.4°
1007.1 hPa 16.9 mm
100%
4.9°
3
Windvlaag: 2.8 m/s
93%
04:00
Voelt als: 4.3°
1006.3 hPa 17.0 mm
100%
5.2°
3
Windvlaag: 2.9 m/s
99%
05:00
Voelt als: 4.2°
1005.6 hPa 17.1 mm
100%
5.2°
3
Windvlaag: 2.9 m/s
99%
06:00
Voelt als: 4.1°
1005.5 hPa 17.6 mm
100%
5.1°
3
Windvlaag: 2.4 m/s
99%
07:00
Voelt als: 4.3°
1005.5 hPa 17.5 mm
100%
5.1°
3
Windvlaag: 2.4 m/s
100%
08:00
Voelt als: 4.6°
1004.7 hPa 29.7 mm
100%
5.6°
3
Windvlaag: 10.5 m/s
100%
09:00
Voelt als: 4.6°
1004.6 hPa 29.9 mm
100%
5.7°
4
Windvlaag: 10.1 m/s
99%
10:00
Voelt als: 4.8°
1004.5 hPa 30.2 mm
100%
5.9°
4
Windvlaag: 10.8 m/s
100%
11:00
Voelt als: 5.2°
1004.2 hPa 30.5 mm
100%
6.2°
4
Windvlaag: 11.9 m/s
100%
12:00
Voelt als: 5.4°
1004.0 hPa 30.5 mm
100%
6.5°
5
Windvlaag: 12.9 m/s
100%
13:00
Voelt als: 5.8°
1003.4 hPa 30.9 mm
100%
7.0°
5
Windvlaag: 1.8 m/s
100%
Temp/Neerslag /Baro Onweer/Dauwpunt
    Temp Baro Neerslag Dauwpunt Wind Bewolking  
 08:29     17:36    Daglengte: 9:07 Vandaag
16:00
Voelt als: 4.6°
992.6 hPa   2.6°
5
87%
19:00
Voelt als: 3.6°
993.7 hPa 5.9 mm 3.5°
4
88%
22:00
Voelt als: 3.3°
994.7 hPa   3.5°
3
82%
 08:30     17:36    Daglengte: 9:06 Morgen
01:00
Voelt als: 3.2°
995.7 hPa   2.8°
4
81%
04:00
Voelt als: 2.9°
996.3 hPa   2.9°
3
87%
07:00
Voelt als: 3.1°
996.9 hPa   0.6°
3
67%
10:00
Voelt als: 2.8°
997.6 hPa   0.9°
4
89%
13:00
Voelt als: 4.1°
998.2 hPa 23.7 mm 5.3°
5
91%
16:00
Voelt als: 5.1°
999.0 hPa 24.7 mm 6.2°
6
90%
19:00
Voelt als: 4.9°
1000.8 hPa 10.1 mm 5.8°
6
84%
22:00
Voelt als: 4.8°
1001.8 hPa 11.4 mm 5.3°
6
88%
 08:31     17:36    Daglengte: 9:05 Zondag 06 Dec
01:00
Voelt als: 5.0°
1001.9 hPa 13.7 mm 5.4°
6
69%
04:00
Voelt als: 5.1°
1002.3 hPa 43.2 mm 5.9°
6
74%
07:00
Voelt als: 4.8°
1003.1 hPa 40.5 mm 6.2°
7
69%
10:00
Voelt als: 4.7°
1005.5 hPa 42.3 mm 5.6°
6
78%
13:00
Voelt als: 5.4°
1006.3 hPa 42.2 mm 6.3°
7
77%
16:00
Voelt als: 5.1°
1006.7 hPa 42.4 mm 6.0°
6
74%
19:00
Voelt als: 4.8°
1007.9 hPa 34.0 mm 5.6°
5
52%
22:00
Voelt als: 4.7°
1008.6 hPa 34.7 mm 5.4°
3
71%
 08:32     17:36    Daglengte: 9:04 Maandag 07 Dec
01:00
Voelt als: 4.3°
1008.4 hPa 44.6 mm 5.1°
3
95%
04:00
Voelt als: 4.3°
1006.3 hPa 50.6 mm 5.2°
3
99%
07:00
Voelt als: 4.3°
1005.5 hPa 52.2 mm 5.1°
3
100%
10:00
Voelt als: 4.8°
1004.5 hPa 89.8 mm 5.9°
4
100%
13:00
Voelt als: 5.8°
1003.4 hPa 91.9 mm 7.0°
5
100%
16:00
Voelt als: 5.5°
1002.4 hPa 65.1 mm 5.6°
5
84%
19:00
Voelt als: 5.8°
1002.3 hPa 66.7 mm 5.1°
4
80%
22:00
Voelt als: 5.3°
1001.4 hPa 69.1 mm 4.3°
4
86%
 08:33     17:36    Daglengte: 9:03 Dinsdag 08 Dec
01:00
Voelt als: 4.6°
1000.4 hPa 77.3 mm 3.3°
4
91%
04:00
Voelt als: 5.0°
1001.9 hPa 86.2 mm 5.4°
5
86%
07:00
Voelt als: 5.4°
1003.5 hPa 87.9 mm 7.3°
6
82%
10:00
Voelt als: 6.1°
1006.8 hPa 91.0 mm 6.3°
6
73%
13:00
10°
Voelt als: 6.9°
1010.2 hPa 92.9 mm 5.1°
6
64%
16:00
Voelt als: 5.7°
1011.1 hPa 96.1 mm 5.7°
5
76%
19:00
Voelt als: 4.4°
1012.2 hPa 101.5 mm 6.2°
4
87%
22:00
Voelt als: 4.3°
1013.5 hPa 105.1 mm 5.9°
4
76%
 08:34     17:36    Daglengte: 9:02 Woensdag 09 Dec
01:00
Voelt als: 4.2°
1014.9 hPa 107.3 mm 5.6°
3
65%
04:00
Voelt als: 4.5°
1015.8 hPa 109.2 mm 5.6°
3
77%
07:00
Voelt als: 5.0°
1016.8 hPa 110.7 mm 5.6°
2
90%
10:00
Voelt als: 5.4°
1017.8 hPa 112.6 mm 6.2°
3
74%
13:00
Voelt als: 6.0°
1018.7 hPa 114.4 mm 6.6°
4
59%
16:00
Voelt als: 6.0°
1018.9 hPa 114.8 mm 6.6°
3
59%
19:00
Voelt als: 5.6°
1019.1 hPa 114.8 mm 6.3°
3
59%
22:00
Voelt als: 5.1°
1018.7 hPa 114.8 mm 5.6°
2
75%
 08:35     17:36    Daglengte: 9:01 Donderdag 10 Dec
01:00
Voelt als: 4.8°
1018.1 hPa 115.3 mm 5.1°
2
91%
04:00
Voelt als: 4.6°
1016.4 hPa 116.0 mm 4.8°
2
91%
07:00
Voelt als: 4.5°
1014.7 hPa 116.9 mm 4.5°
3
92%
10:00
Voelt als: 6.2°
1013.6 hPa 118.0 mm 6.4°
3
91%
13:00
Voelt als: 7.8°
1012.5 hPa 119.2 mm 8.4°
3
90%
16:00
11°
1012.1 hPa 120.0 mm 9.5°
4
91%
19:00
12°
1012.0 hPa 120.2 mm 10.8°
4
92%
22:00
12°
1012.0 hPa 120.3 mm 10.7°
3
92%
 08:36     17:36    Daglengte: 9:00 Vrijdag 11 Dec
01:00
11°
1012.0 hPa 120.3 mm 10.6°
2
92%
04:00
11°
1011.7 hPa 120.3 mm 10.4°
2
92%
07:00
11°
1011.4 hPa 122.0 mm 10.4°
1
92%
10:00
13°
1012.4 hPa 125.3 mm 12.3°
3
92%
13:00
15°
1013.4 hPa 253.3 mm 14.3°
4
92%
19:00
14°
1014.9 hPa 256.8 mm 13.3°
1
92%
 08:36     17:36    Daglengte: 9:00 Zaterdag 12 Dec
01:00
10°
1014.8 hPa 258.5 mm 9.8°
2
87%
07:00
12°
1015.4 hPa 265.7 mm 9.8°
3
65%
13:00
16°
1016.7 hPa 270.8 mm 10.8°
4
69%
19:00
14°
1015.9 hPa 284.8 mm 10.2°
3
77%
 08:37     17:36    Daglengte: 8:59 Zondag 13 Dec
01:00
14°
1016.7 hPa 293.9 mm 9.8°
4
19%
07:00
12°
1019.4 hPa 299.0 mm 10.0°
1
49%
13:00
17°
1020.2 hPa 300.6 mm 10.0°
3
72%
19:00
12°
1019.4 hPa 301.1 mm 8.4°
2
1%
 08:38     17:36    Daglengte: 8:58 Maandag 14 Dec
01:00
Voelt als: 7.0°
1017.5 hPa 301.1 mm 5.7°
3
0%
07:00
Voelt als: 7.2°
1015.7 hPa 301.1 mm 5.7°
4
0%
13:00
12°
1018.5 hPa 0.3 mm 8.4°
3
79%
19:00
11°
1019.6 hPa 0.3 mm 8.4°
2
74%
 08:39     17:37    Daglengte: 8:58 Dinsdag 15 Dec
01:00
10°
1021.4 hPa 1.3 mm 7.7°
2
78%
07:00
10°
Voelt als: 9.5°
1021.5 hPa 1.2 mm 7.5°
2
75%
13:00
12°
1022.6 hPa 1.1 mm 8.2°
2
76%
19:00
11°
1022.8 hPa 0.7 mm 7.6°
1
75%
 08:39     17:37    Daglengte: 8:58 Woensdag 16 Dec
01:00
10°
Voelt als: 9.1°
1023.5 hPa 0.6 mm 7.1°
2
82%
07:00
Voelt als: 8.4°
1023.5 hPa 0.8 mm 6.6°
2
75%
13:00
11°
1024.8 hPa 1.8 mm 7.4°
2
78%
19:00
10°
Voelt als: 9.4°
1025.8 hPa 0.3 mm 7.3°
2
81%
 08:40     17:37    Daglengte: 8:57 Donderdag 17 Dec
01:00
1026.6 hPa 0.7 mm 6.6°
1
71%
07:00
Voelt als: 8.6°
1025.5 hPa 0.5 mm 6.2°
1
80%
13:00
11°
1024.9 hPa 0.8 mm 6.9°
1
78%
19:00
10°
Voelt als: 9.4°
1024.6 hPa 1.1 mm 6.9°
1
80%
 08:41     17:38    Daglengte: 8:57 Vrijdag 18 Dec
01:00
Voelt als: 8.8°
1025.7 hPa 1.6 mm 6.3°
1
79%
07:00
Voelt als: 8.2°
1025.0 hPa 1.2 mm 6.0°
1
82%
13:00
10°
1024.6 hPa 1.3 mm 6.8°
1
75%
19:00
Voelt als: 9.0°
1024.2 hPa 1.4 mm 6.7°
1
69%
 08:41     17:38    Daglengte: 8:57 Zaterdag 19 Dec
01:00
Voelt als: 8.1°
1024.4 hPa 0.8 mm 5.9°
1
68%
07:00
Voelt als: 7.3°
1023.3 hPa 0.8 mm 5.7°
2
72%
13:00
10°
1022.9 hPa 1.2 mm 6.2°
1
72%
  CAPE Lifted Index Hail Supercell Tornado SRH 3km CL BTM PRES CL TOP PRES Swiss DWD icon SMHI TS
 08:29     17:36    Daglengte: 9:07 Vandaag
16:00 4 J/kg 1.0 K 0 % 0 % 0 % 0 m²/s² 0 0 1.66 3
17:00 1 J/kg -0.4 K 0 % 0 % 0 % 0 m²/s² 0 0 0.71 3
18:00 127 J/kg -1.3 K 0 % 0 % 0 % 0 m²/s² 0 0 1.46 3
19:00 219 J/kg -1.9 K 0 % 0 % 0 % 0 m²/s² 0 0 0.17 3
20:00 82 J/kg -1.6 K 0 % 0 % 0 % 0 m²/s² 0 0 1.1 3
21:00 79 J/kg -0.8 K 0 % 0 % 0 % 0 m²/s² 0 0 1.39 3
22:00 113 J/kg -1.1 K 0 % 0 % 0 % 0 m²/s² 0 0 1.51 3
23:00 105 J/kg -1.4 K 0 % 0 % 0 % 0 m²/s² 0 0 1.66 3
 08:30     17:36    Daglengte: 9:06 Morgen
00:00 59 J/kg -0.2 K 0 % 0 % 0 % 0 m²/s² 0 0 0.49 3
01:00 72 J/kg -0.3 K 0 % 0 % 0 % 0 m²/s² 0 0 0.36 3
02:00 4 J/kg 1.0 K 0 % 0 % 0 % 0 m²/s² 0 0 2.83 3
03:00 17 J/kg 0.5 K 0 % 0 % 0 % 0 m²/s² 0 0 4.58 3
04:00 54 J/kg 0.3 K 0 % 0 % 0 % 0 m²/s² 0 0 0.87 3
05:00 25 J/kg -0.8 K 0 % 0 % 0 % 0 m²/s² 0 0 0.97 3
06:00 134 J/kg -1.4 K 0 % 0 % 0 % 0 m²/s² 0 0 0.73 3
07:00 183 J/kg -1.4 K 0 % 0 % 0 % 0 m²/s² 0 0 0.64 3
08:00 56 J/kg 0.3 K 0 % 0 % 0 % 0 m²/s² 0 0 0.84 3
09:00 2 J/kg 1.7 K 0 % 0 % 0 % 0 m²/s² 0 0 2.24 3
10:00 138 J/kg -0.4 K 0 % 0 % 0 % 0 m²/s² 0 0 0.44 61
11:00 539 J/kg -2.2 K 0 % 0 % 0 % 0 m²/s² 0 0 -0.73 3
12:00 628 J/kg -2.4 K 0 % 0 % 0 % 0 m²/s² 0 0 -1.08 3
13:00 576 J/kg -2.4 K 0 % 0 % 0 % 0 m²/s² 0 0 -0.78 80
14:00 569 J/kg -2.5 K 0 % 0 % 0 % 0 m²/s² 0 0 -0.64 80
15:00 561 J/kg -2.5 K 0 % 0 % 0 % 0 m²/s² 0 0 -0.88 80
16:00 490 J/kg -1.8 K 0 % 0 % 0 % 0 m²/s² 0 0 0.42 3
17:00 130 J/kg -0.1 K 0 % 0 % 0 % 0 m²/s² 0 0 1.7 3
18:00 172 J/kg -1.1 K 0 % 0 % 0 % 0 m²/s² 0 0 -0.08 3
19:00 280 J/kg -1.0 K 0 % 0 % 0 % 0 m²/s² 0 0 2.03 3
20:00 179 J/kg -0.3 K 0 % 0 % 0 % 0 m²/s² 0 0 3.33 3
21:00 126 J/kg -0.8 K 0 % 0 % 0 % 0 m²/s² 0 0 0.88 3
22:00 231 J/kg -0.2 K 0 % 0 % 0 % 0 m²/s² 0 0 0.04 3
23:00 307 J/kg -1.2 K 0 % 0 % 0 % 0 m²/s² 0 0 -0.72 3
 08:31     17:36    Daglengte: 9:05 Zondag 06 Dec
00:00 692 J/kg -3.4 K 0 % 0 % 0 % 0 m²/s² 0 0 -2.17 3
01:00 419 J/kg -1.9 K 0 % 0 % 0 % 0 m²/s² 0 0 0.62 3
02:00 625 J/kg -3.1 K 0 % 0 % 0 % 0 m²/s² 0 0 -0.31 3
03:00 478 J/kg -2.1 K 0 % 0 % 0 % 0 m²/s² 0 0 0.9 3
04:00 479 J/kg -2.3 K 0 % 0 % 0 % 0 m²/s² 0 0 0.52 3
05:00 589 J/kg -2.8 K 0 % 0 % 0 % 0 m²/s² 0 0 0.02 3
06:00 541 J/kg -2.6 K 0 % 0 % 0 % 0 m²/s² 0 0 0.07 3
07:00 590 J/kg -2.9 K 0 % 0 % 0 % 0 m²/s² 0 0 -1.07 61
08:00 512 J/kg -2.3 K 0 % 0 % 0 % 0 m²/s² 0 0 -0.14 61
09:00 153 J/kg -1.0 K 0 % 0 % 0 % 0 m²/s² 0 0 0.56 61
10:00 485 J/kg -2.6 K 0 % 0 % 0 % 0 m²/s² 0 0 -1.64 3
11:00 636 J/kg -3.3 K 0 % 0 % 0 % 0 m²/s² 0 0 -0.93 3
12:00 459 J/kg -2.1 K 0 % 0 % 0 % 0 m²/s² 0 0 0.93 80
13:00 425 J/kg -1.7 K 0 % 0 % 0 % 0 m²/s² 0 0 1.66 80
14:00 390 J/kg -1.4 K 0 % 0 % 0 % 0 m²/s² 0 0 1.81 80
15:00 465 J/kg -1.8 K 0 % 0 % 0 % 0 m²/s² 0 0 1.83 61
16:00 497 J/kg -2.0 K 0 % 0 % 0 % 0 m²/s² 0 0 1.21 61
17:00 252 J/kg -1.2 K 0 % 0 % 0 % 0 m²/s² 0 0 1.05 61
18:00 257 J/kg -1.5 K 0 % 0 % 0 % 0 m²/s² 0 0 0.3 61
19:00 408 J/kg -1.6 K 0 % 0 % 0 % 0 m²/s² 0 0 0.2 61
20:00 358 J/kg -0.8 K 0 % 0 % 0 % 0 m²/s² 0 0 0.88 61
21:00 395 J/kg -0.8 K 0 % 0 % 0 % 0 m²/s² 0 0 0.61 61
22:00 340 J/kg 0.0 K 0 % 0 % 0 % 0 m²/s² 0 0 2.1 61
23:00 329 J/kg -0.2 K 0 % 0 % 0 % 0 m²/s² 0 0 2.05 61
 08:32     17:36    Daglengte: 9:04 Maandag 07 Dec
00:00 223 J/kg 0.8 K 0 % 0 % 0 % 0 m²/s² 0 0 2.99 61
01:00 245 J/kg 0.5 K 0 % 0 % 0 % 0 m²/s² 0 0 1.73 61
02:00 153 J/kg 2.6 K 0 % 0 % 0 % 0 m²/s² 0 0 5.57 61
03:00 93 J/kg 3.7 K 0 % 0 % 0 % 0 m²/s² 0 0 8.86 61
04:00 248 J/kg 2.4 K 0 % 0 % 0 % 0 m²/s² 0 0 3.42 61
05:00 257 J/kg 2.9 K 0 % 0 % 0 % 0 m²/s² 0 0 4.28 61
06:00 161 J/kg 3.8 K 0 % 0 % 0 % 0 m²/s² 0 0 4.94 61
07:00 127 J/kg 3.8 K 0 % 0 % 0 % 0 m²/s² 0 0 4.19 61
08:00 137 J/kg 3.3 K 0 % 0 % 0 % 0 m²/s² 0 0 4.86 61
09:00 52 J/kg 4.1 K 0 % 0 % 0 % 0 m²/s² 0 0 4.79 61
10:00 1 J/kg 4.0 K 0 % 0 % 0 % 0 m²/s² 0 0 4.48 61
11:00 3 J/kg 3.8 K 0 % 0 % 0 % 0 m²/s² 0 0 4.25 61
12:00 16 J/kg 4.0 K 0 % 0 % 0 % 0 m²/s² 0 0 4.33 61
13:00 2 J/kg 3.0 K 0 % 0 % 0 % 0 m²/s² 0 0 3.33 61
Temp Baro Wind Neerslag
  EWN Forecast EWN WRFDA DWD ICON FMI HIRLAM MET Norway GFS
 08:29     17:36    Daglengte: 9:07 Vandaag
16:00 7.7° 992.6 hPa 5.2 m/s 0.0 mm 5.4° 990.7 hPa 6.5 m/s 27.0 mm 7.3° 993.0 hPa 5.2 m/s -2.0 mm 9.8° 991.7 hPa 6.0 m/s 0.0 mm 8.0° 992.8 hPa 4.9 m/s 9.2° 992.2 hPa 4.7 m/s
19:00 6.4° 993.7 hPa 4.0 m/s 5.9 mm 7.6° 989.4 hPa 9.4 m/s 85.6 mm 6.0° 993.4 hPa 3.9 m/s 0.0 mm 8.5° 993.0 hPa 3.3 m/s 0.0 mm 6.2° 994.4 hPa 3.3 m/s 7.5° 993.2 hPa 3.7 m/s
22:00 5.9° 994.7 hPa 3.4 m/s 0.0 mm 7.3° 990.6 hPa 8.5 m/s 88.9 mm 5.9° 994.7 hPa 3.2 m/s 0.0 mm 7.1° 994.2 hPa 2.6 m/s 0.0 mm 5.5° 995.3 hPa 2.7 m/s 6.9° 995.4 hPa 3.2 m/s
 08:30     17:36    Daglengte: 9:06 Morgen
01:00 5.9° 995.7 hPa 3.7 m/s 0.0 mm 7.2° 991.9 hPa 8.3 m/s 90.5 mm 5.8° 995.6 hPa 3.5 m/s 0.0 mm 7.4° 995.6 hPa 3.1 m/s 0.0 mm 5.6° 996.2 hPa 3.0 m/s 5.6° 996.1 hPa 3.2 m/s
04:00 5.5° 996.3 hPa 3.3 m/s 0.0 mm 6.3° 992.9 hPa 10.8 m/s 95.0 mm 5.3° 996.0 hPa 2.2 m/s 0.0 mm 6.2° 996.6 hPa 2.7 m/s 0.0 mm 5.3° 996.7 hPa 2.6 m/s 5.9° 996.8 hPa 2.8 m/s
07:00 5.5° 996.9 hPa 3.1 m/s 0.0 mm 8.1° 991.6 hPa 6.6 m/s 103.3 mm 5.5° 997.0 hPa 2.2 m/s 0.1 mm 6.4° 997.0 hPa 3.3 m/s 0.0 mm 5.1° 997.4 hPa 2.5 m/s 5.0° 997.5 hPa 3.0 m/s
10:00 5.9° 997.6 hPa 4.3 m/s 0.0 mm 7.4° 993.2 hPa 8.8 m/s 122.3 mm 6.1° 997.4 hPa 2.1 m/s 0.1 mm 6.9° 996.6 hPa 4.5 m/s 0.0 mm 5.5° 998.6 hPa 3.7 m/s 4.3° 997.8 hPa 3.4 m/s
13:00 7.2° 998.2 hPa 4.9 m/s 23.7 mm 11.3° 995.0 hPa 12.5 m/s 139.5 mm 6.8° 998.3 hPa 4.1 m/s 1.5 mm 10.5° 997.0 hPa 4.3 m/s 0.0 mm 6.4° 999.2 hPa 4.3 m/s 4.8° 998.1 hPa 2.9 m/s
16:00 8.3° 999.0 hPa 5.9 m/s 24.7 mm 11.0° 995.6 hPa 11.0 m/s 145.2 mm 7.7° 999.3 hPa 6.2 m/s 0.8 mm 10.6° 998.1 hPa 5.6 m/s 0.0 mm 7.9° 1000.0 hPa 5.1 m/s 6.7° 999.1 hPa 2.2 m/s
19:00 8.1° 1000.8 hPa 5.9 m/s 10.1 mm 10.4° 997.3 hPa 12.3 m/s 150.5 mm 7.4° 1001.6 hPa 4.8 m/s 0.0 mm 9.3° 999.8 hPa 6.7 m/s 0.0 mm 7.1° 1002.0 hPa 5.1 m/s 7.8° 1001.1 hPa 4.3 m/s
22:00 8.0° 1001.8 hPa 5.7 m/s 11.4 mm 8.5° 997.9 hPa 8.5 m/s 157.8 mm 7.4° 1002.7 hPa 5.6 m/s 0.0 mm 9.1° 1000.8 hPa 6.3 m/s 0.0 mm 7.2° 1003.0 hPa 4.3 m/s 6.7° 1003.1 hPa 3.6 m/s
 08:31     17:36    Daglengte: 9:05 Zondag 06 Dec
01:00 8.2° 1001.9 hPa 5.9 m/s 13.7 mm 11.5° 997.3 hPa 10.7 m/s 197.5 mm 7.6° 1003.1 hPa 5.4 m/s 0.0 mm 9.0° 1000.6 hPa 6.6 m/s 0.0 mm 6.6° 1003.3 hPa 4.3 m/s 7.0° 1004.1 hPa 3.6 m/s
04:00 8.4° 1002.3 hPa 6.2 m/s 43.2 mm 11.1° 999.9 hPa 9.3 m/s 206.3 mm 7.8° 1003.4 hPa 6.6 m/s 0.0 mm 9.2° 1000.8 hPa 6.0 m/s 0.0 mm 6.7° 1003.6 hPa 4.3 m/s 6.9° 1004.0 hPa 4.7 m/s
07:00 8.3° 1003.1 hPa 6.9 m/s 40.5 mm 11.0° 1000.6 hPa 8.5 m/s 213.8 mm 7.2° 1004.0 hPa 7.4 m/s 0.4 mm 9.8° 1002.3 hPa 6.4 m/s 0.0 mm 7.0° 1004.2 hPa 5.9 m/s 6.4° 1004.2 hPa 3.1 m/s
10:00 8.0° 1005.5 hPa 6.2 m/s 42.3 mm 10.8° 1002.0 hPa 6.2 m/s 222.0 mm 7.5° 1006.4 hPa 4.7 m/s 0.4 mm 7.7° 1005.9 hPa 6.4 m/s 6.5° 1005.5 hPa 2.7 m/s
13:00 8.7° 1006.3 hPa 6.6 m/s 42.2 mm 12.0° 1001.8 hPa 10.3 m/s 224.6 mm 7.9° 1007.1 hPa 4.7 m/s 1.1 mm 8.3° 1006.9 hPa 6.7 m/s 9.0° 1006.5 hPa 4.2 m/s
16:00 8.4° 1006.7 hPa 6.3 m/s 42.4 mm 11.3° 1002.1 hPa 12.8 m/s 225.7 mm 7.4° 1007.2 hPa 3.4 m/s 2.3 mm 7.9° 1007.7 hPa 6.1 m/s 8.9° 1006.1 hPa 5.0 m/s
19:00 7.6° 1007.9 hPa 4.6 m/s 34.0 mm 11.5° 1003.5 hPa 11.0 m/s 230.5 mm 6.6° 1008.1 hPa 2.7 m/s 1.8 mm 7.3° 1009.4 hPa 4.2 m/s 7.7° 1007.3 hPa 3.4 m/s
22:00 6.8° 1008.6 hPa 3.0 m/s 34.7 mm 11.1° 1004.7 hPa 9.9 m/s 235.0 mm 6.4° 1008.0 hPa 2.3 m/s 2.3 mm 6.1° 1009.8 hPa 2.0 m/s 6.6° 1008.3 hPa 1.9 m/s
 08:32     17:36    Daglengte: 9:04 Maandag 07 Dec
01:00 6.5° 1008.4 hPa 2.9 m/s 44.6 mm 10.3° 1005.0 hPa 9.8 m/s 240.0 mm 6.3° 1007.7 hPa 1.9 m/s 2.7 mm 5.4° 1008.8 hPa 2.4 m/s 7.4° 1008.4 hPa 2.6 m/s
04:00 6.4° 1006.3 hPa 2.8 m/s 50.6 mm 10.6° 1005.3 hPa 10.0 m/s 246.7 mm 5.9° 1006.5 hPa 1.2 m/s 2.3 mm 6.2° 1006.1 hPa 2.4 m/s 6.7° 1008.2 hPa 2.1 m/s
07:00 6.4° 1005.5 hPa 2.9 m/s 52.2 mm 10.5° 1005.8 hPa 8.0 m/s 252.5 mm 5.7° 1006.2 hPa 1.2 m/s 1.6 mm 6.4° 1003.5 hPa 2.8 m/s 6.8° 1007.8 hPa 2.2 m/s
10:00 7.3° 1004.5 hPa 3.9 m/s 89.8 mm 9.1° 1005.5 hPa 6.4 m/s 266.2 mm 6.1° 1007.7 hPa 1.1 m/s 1.6 mm 7.4° 1002.9 hPa 4.2 m/s 7.1° 1006.6 hPa 3.2 m/s
13:00 8.6° 1003.4 hPa 5.1 m/s 91.9 mm 9.6° 1003.8 hPa 6.8 m/s 274.1 mm 8.7° 1006.2 hPa 1.6 m/s 0.8 mm 8.3° 1002.3 hPa 5.6 m/s 7.2° 1005.3 hPa 2.0 m/s
16:00 8.2° 1002.4 hPa 4.6 m/s 65.1 mm 8.2° 1002.1 hPa 4.7 m/s 7.4° 1005.3 hPa 2.6 m/s 65.1 mm
19:00 8.3° 1002.3 hPa 4.3 m/s 66.7 mm 8.2° 1002.0 hPa 4.3 m/s 9.6° 1005.8 hPa 4.4 m/s 66.7 mm
22:00 7.8° 1001.4 hPa 4.1 m/s 69.1 mm 7.7° 1001.0 hPa 4.2 m/s 8.9° 1005.7 hPa 2.4 m/s 69.1 mm
 08:33     17:36    Daglengte: 9:03 Dinsdag 08 Dec
01:00 7.2° 1000.4 hPa 4.0 m/s 77.3 mm 7.2° 1000.0 hPa 4.1 m/s 7.8° 1004.5 hPa 2.8 m/s 77.3 mm
04:00 7.9° 1001.9 hPa 4.9 m/s 86.2 mm 7.8° 1001.6 hPa 4.9 m/s 8.4° 1004.4 hPa 3.9 m/s 86.2 mm
07:00 8.5° 1003.5 hPa 5.7 m/s 87.9 mm 8.5° 1003.3 hPa 5.8 m/s 8.4° 1005.4 hPa 4.3 m/s 87.9 mm
10:00 9.0° 1006.8 hPa 5.6 m/s 91.0 mm 9.1° 1006.8 hPa 5.8 m/s 8.1° 1006.8 hPa 3.3 m/s 91.0 mm
13:00 9.7° 1010.2 hPa 5.8 m/s 92.9 mm 9.7° 1010.4 hPa 5.9 m/s 9.2° 1007.5 hPa 4.9 m/s 92.9 mm
16:00 8.5° 1011.1 hPa 5.0 m/s 96.1 mm 8.4° 1011.5 hPa 5.1 m/s 8.6° 1006.6 hPa 4.0 m/s 96.1 mm
19:00 7.2° 1012.2 hPa 4.2 m/s 101.5 mm 7.2° 1012.7 hPa 4.3 m/s 6.8° 1006.9 hPa 2.7 m/s 101.5 mm
22:00 6.8° 1013.5 hPa 3.7 m/s 105.1 mm 6.8° 1014.0 hPa 3.8 m/s 7.9° 1009.0 hPa 2.7 m/s 105.1 mm
 08:34     17:36    Daglengte: 9:02 Woensdag 09 Dec
01:00 6.5° 1014.9 hPa 3.1 m/s 107.3 mm 6.3° 1015.2 hPa 3.2 m/s 8.5° 1011.1 hPa 2.3 m/s 107.3 mm
04:00 6.4° 1015.8 hPa 2.6 m/s 109.2 mm 6.2° 1016.2 hPa 2.5 m/s 8.6° 1012.3 hPa 2.9 m/s 109.2 mm
07:00 6.3° 1016.8 hPa 1.9 m/s 110.7 mm 6.2° 1017.1 hPa 1.9 m/s 7.6° 1012.9 hPa 2.4 m/s 110.7 mm
10:00 7.4° 1017.8 hPa 3.1 m/s 112.6 mm 7.3° 1018.1 hPa 3.2 m/s 8.3° 1014.0 hPa 2.6 m/s 112.6 mm
13:00 8.5° 1018.7 hPa 4.3 m/s 114.4 mm 8.5° 1019.1 hPa 4.4 m/s 8.6° 1014.2 hPa 3.1 m/s 114.4 mm
16:00 8.1° 1018.9 hPa 3.5 m/s 114.8 mm 8.0° 1019.4 hPa 3.6 m/s 10.3° 1012.8 hPa 2.4 m/s 114.8 mm
19:00 7.4° 1019.1 hPa 2.7 m/s 114.8 mm 7.4° 1019.7 hPa 2.7 m/s 6.9° 1012.4 hPa 2.6 m/s 114.8 mm
22:00 6.6° 1018.7 hPa 2.1 m/s 114.8 mm 6.6° 1019.4 hPa 2.0 m/s 7.0° 1011.1 hPa 3.0 m/s 114.8 mm
 08:35     17:36    Daglengte: 9:01 Donderdag 10 Dec
01:00 5.9° 1018.1 hPa 1.6 m/s 115.3 mm 5.7° 1019.1 hPa 1.4 m/s 8.2° 1007.4 hPa 4.0 m/s 115.3 mm
04:00 6.3° 1016.4 hPa 2.3 m/s 116.0 mm 6.0° 1017.6 hPa 2.1 m/s 9.5° 1003.1 hPa 4.2 m/s 116.0 mm
07:00 6.7° 1014.7 hPa 3.0 m/s 116.9 mm 6.3° 1016.1 hPa 2.9 m/s 10.8° 999.9 hPa 3.9 m/s 116.9 mm
10:00 8.0° 1013.6 hPa 2.8 m/s 118.0 mm 7.8° 1014.9 hPa 2.8 m/s 10.6° 999.3 hPa 2.7 m/s 118.0 mm
13:00 9.3° 1012.5 hPa 2.8 m/s 119.2 mm 9.2° 1013.7 hPa 2.8 m/s 10.9° 999.1 hPa 3.1 m/s 119.2 mm
16:00 10.7° 1012.1 hPa 3.8 m/s 120.0 mm 10.6° 1013.4 hPa 3.6 m/s 12.3° 998.9 hPa 5.6 m/s 120.0 mm
19:00 11.8° 1012.0 hPa 4.2 m/s 120.2 mm 11.9° 1013.0 hPa 4.4 m/s 10.4° 1000.6 hPa 2.4 m/s 120.2 mm
22:00 11.6° 1012.0 hPa 3.3 m/s 120.3 mm 11.8° 1013.0 hPa 3.4 m/s 9.2° 1001.5 hPa 2.0 m/s 120.3 mm
 08:36     17:36    Daglengte: 9:00 Vrijdag 11 Dec
01:00 11.5° 1012.0 hPa 2.4 m/s 120.3 mm 11.7° 1013.0 hPa 2.4 m/s 8.8° 1001.4 hPa 1.9 m/s 120.3 mm
04:00 11.3° 1011.7 hPa 1.9 m/s 120.3 mm 11.5° 1012.8 hPa 1.9 m/s 9.0° 1000.4 hPa 2.1 m/s 120.4 mm
07:00 11.1° 1011.4 hPa 1.4 m/s 122.0 mm 11.3° 1012.5 hPa 1.4 m/s 9.0° 999.5 hPa 0.8 m/s 122.0 mm
10:00 12.9° 1012.4 hPa 2.8 m/s 125.3 mm 13.2° 1013.5 hPa 2.8 m/s 10.1° 1000.3 hPa 2.2 m/s 125.3 mm
13:00 14.8° 1013.4 hPa 4.2 m/s 128.0 mm 15.1° 1014.6 hPa 4.3 m/s 11.4° 1000.7 hPa 2.6 m/s 128.0 mm
19:00 13.8° 1014.9 hPa 0.9 m/s 128.7 mm 13.9° 1015.9 hPa 0.8 m/s 12.7° 1004.3 hPa 2.1 m/s 128.7 mm
 08:36     17:36    Daglengte: 9:00 Zaterdag 12 Dec
01:00 10.2° 1014.8 hPa 1.8 m/s 129.4 mm 10.2° 1015.7 hPa 1.7 m/s 10.8° 1005.1 hPa 3.0 m/s 129.4 mm
07:00 11.6° 1015.4 hPa 3.3 m/s 133.9 mm 11.5° 1016.3 hPa 3.4 m/s 12.3° 1005.1 hPa 1.6 m/s 133.9 mm
13:00 16.2° 1016.7 hPa 4.0 m/s 136.3 mm 16.5° 1017.7 hPa 4.2 m/s 13.0° 1005.6 hPa 2.0 m/s 136.3 mm
19:00 13.6° 1015.9 hPa 3.2 m/s 144.8 mm 13.8° 1017.0 hPa 3.4 m/s 11.8° 1003.5 hPa 1.4 m/s 144.8 mm
 08:37     17:36    Daglengte: 8:59 Zondag 13 Dec
01:00 13.8° 1016.7 hPa 3.6 m/s 147.1 mm 14.0° 1017.7 hPa 3.8 m/s 11.5° 1005.4 hPa 1.8 m/s 147.1 mm
07:00 11.9° 1019.4 hPa 1.3 m/s 149.7 mm 12.0° 1020.3 hPa 1.0 m/s 10.9° 1009.9 hPa 4.5 m/s 149.7 mm
13:00 16.7° 1020.2 hPa 2.5 m/s 150.5 mm 17.1° 1020.7 hPa 2.5 m/s 12.6° 1015.0 hPa 2.6 m/s 150.5 mm
19:00 11.7° 1019.4 hPa 2.4 m/s 150.6 mm 11.8° 1019.6 hPa 2.5 m/s 10.7° 1017.0 hPa 1.0 m/s 150.6 mm
 08:38     17:36    Daglengte: 8:58 Maandag 14 Dec
01:00 8.7° 1017.5 hPa 2.9 m/s 150.6 mm 8.7° 1017.5 hPa 2.9 m/s 150.6 mm
07:00 9.2° 1015.7 hPa 3.7 m/s 150.6 mm 9.2° 1015.7 hPa 3.7 m/s 150.6 mm
13:00 12.2° 1018.5 hPa 3.0 m/s 0.3 mm
19:00 10.8° 1019.6 hPa 1.9 m/s 0.3 mm
 08:39     17:37    Daglengte: 8:58 Dinsdag 15 Dec
01:00 10.3° 1021.4 hPa 1.9 m/s 1.3 mm
07:00 10.0° 1021.5 hPa 1.6 m/s 1.2 mm
13:00 12.0° 1022.6 hPa 1.7 m/s 1.1 mm
19:00 10.5° 1022.8 hPa 1.1 m/s 0.7 mm
 08:39     17:37    Daglengte: 8:58 Woensdag 16 Dec
01:00 9.9° 1023.5 hPa 1.9 m/s 0.6 mm
07:00 9.4° 1023.5 hPa 2.1 m/s 0.8 mm
13:00 11.4° 1024.8 hPa 2.2 m/s 1.8 mm
19:00 9.9° 1025.8 hPa 1.6 m/s 0.3 mm
 08:40     17:37    Daglengte: 8:57 Donderdag 17 Dec
01:00 9.2° 1026.6 hPa 0.8 m/s 0.7 mm
07:00 8.7° 1025.5 hPa 1.2 m/s 0.5 mm
13:00 10.7° 1024.9 hPa 1.0 m/s 0.8 mm
19:00 9.5° 1024.6 hPa 1.2 m/s 1.1 mm
 08:41     17:38    Daglengte: 8:57 Vrijdag 18 Dec
01:00 8.8° 1025.7 hPa 1.1 m/s 1.6 mm
07:00 8.4° 1025.0 hPa 1.2 m/s 1.2 mm
13:00 10.4° 1024.6 hPa 1.4 m/s 1.3 mm
19:00 9.2° 1024.2 hPa 1.3 m/s 1.4 mm
 08:41     17:38    Daglengte: 8:57 Zaterdag 19 Dec
01:00 8.4° 1024.4 hPa 1.3 m/s 0.8 mm
07:00 8.0° 1023.3 hPa 1.6 m/s 0.8 mm
13:00 10.1° 1022.9 hPa 1.4 m/s 1.2 mm
FMI Hirlam - 7.5 km EWN WRFDA - 12 km DWD ICON - 7 km GFS - 25 km Basiskaart






























































Updatetijd (Europe/Amsterdam) Resolutie Lengte Stap
FMI Hirlam 13:00, 19:00, 01:00, 07:00 7.5 km 49h 1h
EWN WRFDA 09:30, 15:30, 21:30, 03:30 12 km 73h 1h
DWD ICON 10:45, 16:45, 22:45, 04:45 7 km 75h 1h
GFS 13:00, 19:00, 01:00, 07:00 25 km 237h 3h
30+ mm
25-30 mm
20-25 mm
15-20 mm
10-15 mm
6-10 mm
4-6 mm
2-4 mm
1-2 mm
0.5-1 mm
0.2-0.5 mm
0.1-0.2 mm
30+ mm
25-30 mm
20-25 mm
15-20 mm
10-15 mm
6-10 mm
4-6 mm
2-4 mm
1-2 mm
0.5-1 mm
0.2-0.5 mm
0.1-0.2 mm
Sneeuwval
Natte sneeuw
Hagel
Vorst
30+ mm
25-30 mm
20-25 mm
15-20 mm
10-15 mm
6-10 mm
4-6 mm
2-4 mm
1-2 mm
0.5-1 mm
0.2-0.5 mm
0.1-0.2 mm
Sneeuwval
Natte sneeuw
Hagel
Vorst
Onweer
50 mm
40 mm
30 mm
26 mm
22 mm
18 mm
14 mm
10 mm
9 mm
8 mm
7 mm
6 mm
5 mm
4.5 mm
4 mm
3.5 mm
3 mm
2.5 mm
2 mm
1.5 mm
1 mm
0.8 mm
0.6 mm
0.4 mm
0.2 mm
0.05 mm
35°
30°
25°
20°
15°
10°
-5°
-10°
-15°
-20°
-25°
-30°
-35°
33> m/s
29 m/s
25 m/s
21 m/s
17 m/s
14 m/s
11 m/s
8 m/s
5 m/s
3 m/s
0 m/s
2600 J/kg
2400 J/kg
2200 J/kg
2000 J/kg
1800 J/kg
1600 J/kg
1400 J/kg
1200 J/kg
1000 J/kg
800 J/kg
600 J/kg
400 J/kg
200 J/kg
70 dBZ
65 dBZ
60 dBZ
55 dBZ
50 dBZ
45 dBZ
40 dBZ
35 dBZ
30 dBZ
25 dBZ
20 dBZ
15 dBZ
10 dBZ
5 dBZ
-1 K
-2 K
-3 K
-4 K
-5 K
-6 K
-7 K
-8 K
-9 K
950 m²/s²
900 m²/s²
850 m²/s²
800 m²/s²
750 m²/s²
700 m²/s²
650 m²/s²
600 m²/s²
550 m²/s²
500 m²/s²
450 m²/s²
400 m²/s²
350 m²/s²
300 m²/s²
250 m²/s²
200 m²/s²
150 m²/s²
100 m²/s²
46 m/s
44 m/s
42 m/s
40 m/s
38 m/s
36 m/s
34 m/s
32 m/s
30 m/s
28 m/s
26 m/s
24 m/s
22 m/s
20 m/s
16 m/s
12 m/s
8 m/s
4 m/s
30 m/s
28 m/s
26 m/s
24 m/s
22 m/s
20 m/s
18 m/s
16 m/s
14 m/s
12 m/s
10 m/s
8 m/s
6 m/s
4 m/s
2 m/s
3.0
2.8
2.6
2.4
2.2
2.0
1.8
1.6
1.4
1.2
1.0
0.8
0.6
0.4
0.2
15
14
13
12
11
10
9
8
7
6